Location: American Medical Response
(33.3472°N, 96.5511°W)
Time: 19:40:28
(UTC+00:00)

Lacrosse 5 rocket - Pass Details

Date: 07 July 2022
Orbit: 456 x 628 km, 57.0° (Epoch: 08 August)

Event Time Altitude Azimuth Distance (km) Brightness Sun altitude
Rises 02:31:01 0° 317° (NW) 2,591 6.7 -10.0°
Reaches altitude 10° 02:33:09 10° 314° (NW) 1,731 5.4 -10.4°
Maximum altitude 02:37:00 61° 234° (SW) 607 1.6 -11.0°
Enters shadow 02:40:29 14° 155° (SSE) 1,593 3.1 -11.6°
